Weather History for Doncaster Sheffield, United Kingdom

Change the Weather History Date:

Saturday, August 9, 2014

  Actual Average Record
Temperature  
Mean Temperature 65 °F -  
Max Temperature 73 °F - - ()
Min Temperature 57 °F - - ()
Growing Degree Days 15 (Base 50)    
Moisture  
Dew Point 52 °F    
Average Humidity 65    
Maximum Humidity 100    
Minimum Humidity 36    
Precipitation  
Precipitation 0.00 in - - ()
Sea Level Pressure  
Sea Level Pressure 29.67 in    
Wind  
Wind Speed 11 mph ()    
Max Wind Speed 24 mph    
Max Gust Speed 32 mph    
Visibility 5.9 miles    
Events Rain    
T = Trace of Precipitation, MM = Missing Value Source: Averaged Metar Reports

Daily Weather History Graph

Daily Weather History Graph

Search for Another Location

Airport:

Trip Planner

Search our weather history database for the weather conditions in past years. The results will help you decide how hot, cold, wet, or windy it might be!

Date:

Astronomy

Aug. 09, 2014 Rise Set
Actual Time 5:32 AM BST 8:44 PM BST
Civil Twilight 4:51 AM BST 9:26 PM BST
Nautical Twilight 3:56 AM BST 10:20 PM BST
Astronomical Twilight 2:39 AM BST 11:35 PM BST
Moon 7:31 PM BST (8/9) 3:54 AM BST (8/9)
Length of Visible Light 16h 34m
Length of Day
15h 12m
Waxing Gibbous, 97% of the Moon is Illuminated
Aug 9
Waxing Gibbous
Aug 10
Full
Aug 17
Last Quarter
Aug 25
New
Sep 2
First Quarter

Hourly Weather History & Observations

Time (BST) Temp. Dew Point Humidity Pressure Visibility Wind Dir Wind Speed Gust Speed Precip Events Conditions
12:20 AM 57.2 °F 57.2 °F 100% 29.62 in 4.3 mi WSW 3.5 mph - N/A Rain Light Rain
12:50 AM 57.2 °F 55.4 °F 94% 29.62 in 4.3 mi West 5.8 mph - N/A Rain Light Rain
2:50 AM 57.2 °F 57.2 °F 100% 29.59 in 5.0 mi Variable 1.2 mph - N/A Rain Light Rain
3:50 AM 57.2 °F 53.6 °F 88% 29.59 in 5.0 mi West 11.5 mph - N/A   Partly Cloudy
4:20 AM 57.2 °F 53.6 °F 88% 29.59 in 5.6 mi West 9.2 mph - N/A   Partly Cloudy
4:50 AM 57.2 °F 53.6 °F 88% 29.59 in 5.6 mi West 9.2 mph - N/A   Unknown
5:20 AM 57.2 °F 53.6 °F 88% 29.59 in - West 11.5 mph - N/A   Clear
6:20 AM 57.2 °F 53.6 °F 88% 29.59 in - WSW 12.7 mph - N/A   Clear
7:20 AM 59.0 °F 53.6 °F 82% 29.62 in - WSW 9.2 mph - N/A   Clear
8:20 AM 60.8 °F 55.4 °F 82% 29.65 in 6.2 mi WSW 10.4 mph - N/A   Partly Cloudy
8:50 AM 62.6 °F 55.4 °F 77% 29.65 in 6.2 mi West 13.8 mph - N/A   Partly Cloudy
9:20 AM 64.4 °F 53.6 °F 68% 29.65 in 6.2 mi WSW 17.3 mph - N/A   Scattered Clouds
10:20 AM 66.2 °F 53.6 °F 64% 29.68 in 6.2 mi WSW 20.7 mph - N/A   Scattered Clouds
10:50 AM 66.2 °F 51.8 °F 60% 29.68 in 6.2 mi WSW 23.0 mph - N/A   Scattered Clouds
11:20 AM 68.0 °F 51.8 °F 56% 29.68 in 6.2 mi WSW 24.2 mph - N/A   Scattered Clouds
11:50 AM 68.0 °F 50.0 °F 52% 29.68 in 6.2 mi WSW 21.9 mph - N/A   Scattered Clouds
12:20 PM 69.8 °F 51.8 °F 53% 29.68 in 6.2 mi WSW 19.6 mph 32.2 mph N/A   Scattered Clouds
12:50 PM 71.6 °F 51.8 °F 50% 29.68 in 6.2 mi WSW 23.0 mph - N/A   Scattered Clouds
1:20 PM 68.0 °F 51.8 °F 56% 29.71 in 6.2 mi SW 17.3 mph - N/A   Partly Cloudy
1:50 PM 69.8 °F 50.0 °F 49% 29.71 in 6.2 mi WSW 20.7 mph - N/A   Partly Cloudy
2:20 PM 68.0 °F 48.2 °F 49% 29.71 in - WSW 16.1 mph - N/A   Clear
2:50 PM 73.4 °F 48.2 °F 41% 29.71 in - WSW 23.0 mph - N/A   Clear
3:20 PM 71.6 °F 46.4 °F 41% 29.71 in - SW 23.0 mph - N/A   Clear
3:50 PM 73.4 °F 46.4 °F 38% 29.68 in - WSW 19.6 mph - N/A   Clear
4:20 PM 73.4 °F 44.6 °F 36% 29.68 in - SW 20.7 mph - N/A   Clear
4:50 PM 73.4 °F 48.2 °F 41% 29.68 in - WSW 19.6 mph - N/A   Clear
5:20 PM 73.4 °F 46.4 °F 38% 29.68 in - SW 18.4 mph - N/A   Clear
5:50 PM 71.6 °F 48.2 °F 43% 29.68 in - SW 12.7 mph - N/A   Clear
6:20 PM 71.6 °F 50.0 °F 46% 29.71 in - SW 12.7 mph - N/A   Clear
6:50 PM 69.8 °F 48.2 °F 46% 29.71 in 6.2 mi SW 15.0 mph - N/A   Partly Cloudy
7:20 PM 69.8 °F 48.2 °F 46% 29.71 in 6.2 mi SW 11.5 mph - N/A   Partly Cloudy
7:50 PM 68.0 °F 50.0 °F 52% 29.71 in 6.2 mi SW 11.5 mph - N/A   Partly Cloudy
8:20 PM 64.4 °F 51.8 °F 64% 29.71 in 6.2 mi SSW 6.9 mph - N/A   Partly Cloudy
8:50 PM 64.4 °F 51.8 °F 64% 29.74 in 6.2 mi South 5.8 mph - N/A   Partly Cloudy
9:20 PM 64.4 °F 53.6 °F 68% 29.74 in 6.2 mi South 6.9 mph - N/A   Partly Cloudy
9:50 PM 60.8 °F 55.4 °F 82% 29.74 in 5.6 mi SW 11.5 mph - N/A Rain Light Rain Showers
10:20 PM 59.0 °F 55.4 °F 88% 29.74 in 6.2 mi SSW 5.8 mph - N/A Rain Light Rain Showers
11:20 PM 57.2 °F 55.4 °F 94% 29.71 in 6.2 mi South 6.9 mph - N/A   Partly Cloudy
11:50 PM 59.0 °F 57.2 °F 94% 29.71 in 6.2 mi South 6.9 mph - N/A Rain Light Rain